LogoCoinalyze
    Ad-Free Version Inicio Mercados Tasas de Financiamiento
    Datos de futuros
    • Datos agregados (Monedas)
    • Gráficos individuales
    • Gráficos globales
    Alertas
    TA
    Bitcoin Ethereum BNB Ripple Tron ZCash Dogecoin Monero UNUS SED LEO Chainlink Cardano Stellar Lumens Bitcoin Cash Litecoin Hedera Cronos Polkadot Ethereum Classic Algorand Quant Cosmos VeChain Dash Bitcoin SV BitTorrent Terra Decred Tezos Iota The Graph THETA Decentraland NEO Chiliz MultiversX Golem Basic Attention Token Horizen Qtum 0x DigiByte Beam RIF Token FTX Token Holo FUNToken Zilliqa Ontology aelf Nano Enjin Coin Ravencoin Mask Network Siacoin Verge Status WINk Waves IoTeX iExec RLC Power Ledger Steem Kyber Network Crystal Lisk Ark Ardor IOST WOO Network WAX Icon Storj Wanchain Loopring Bitcoin Diamond AdEx Bitcoin Gold Augur OmiseGO NEM MonaCoin BitShares Ren Komodo V Systems Nuls Mithril SOLVE Maker EOS Aion Nebulas HedgeTrade Bread Fetch.ai TomoChain Polygon Fantom Waltonchain GXChain Bytom Metaverse ETP MaidSafeCoin QASH
    Ordenar por:
    Más
    • API
    • Patrones de velas
    • Donar
    • Contacto
    • Mapa del Sitio
    • Privacy Policy
    • Disclaimer
    • Theme:
    Español
    • English
    • Français
    • Русский
    • Deutsch
    • Türkçe
    • Nederlands
    • Português (BR)
    • 한국어
    • 简体中文
    • 日本語
     
    Iniciar sesión / Registrar
    Markets/ Pepe/ PEPE a USDC/ PEPEUSDC Binance
    Trades
    WL
    Chat
    Estad.
    Noticias
    ⦷
    AAA
    0.00000340 1986605.00000000 10:37:24
    0.00000340 3008853.00000000 10:37:20
    0.00000340 16353694.00000000 10:36:38
    0.00000340 1013793.00000000 10:36:20
    0.00000340 2000000.00000000 10:35:43
    0.00000340 1469243.00000000 10:34:52
    0.00000340 6142506.00000000 10:34:47
    0.00000340 336909.00000000 10:33:54
    0.00000340 86241100.00000000 10:33:54
    0.00000340 1013793.00000000 10:33:27
    0.00000340 96475177.00000000 10:33:27
    0.00000340 312086715.00000000 10:33:13
    0.00000340 1011555.00000000 10:33:07
    0.00000340 123162000.00000000 10:32:57
    0.00000340 127462600.00000000 10:32:57
    0.00000340 234506389.00000000 10:32:43
    0.00000340 5031732.00000000 10:32:02
    0.00000340 61800000.00000000 10:32:01
    0.00000340 466817.00000000 10:26:51
    0.00000340 37005956.00000000 10:25:16
    0.00000341 1335975.00000000 10:22:51
    0.00000340 3284569.00000000 10:21:33
    0.00000341 1008212.00000000 10:21:26
    0.00000341 1010436.00000000 10:21:20
    0.00000341 53951784.00000000 10:21:20
    0.00000341 70753040.00000000 10:21:20
    0.00000340 11681905.00000000 10:20:59
    0.00000341 149904824.00000000 10:20:23
    0.00000341 224669659.00000000 10:19:41
    0.00000341 225140922.00000000 10:19:38
    0.00000341 1007100.00000000 10:19:25
    0.00000341 293256.00000000 10:19:20
    0.00000341 293256.00000000 10:19:20
    0.00000341 293256.00000000 10:19:20
    0.00000341 293256.00000000 10:19:20
    0.00000341 293256.00000000 10:19:20
    0.00000341 29144475.00000000 10:19:20
    0.00000341 293256.00000000 10:18:58
    0.00000341 29144475.00000000 10:18:58
    0.00000341 293256.00000000 10:18:58
    0.00000341 293256.00000000 10:18:58
    0.00000341 293256.00000000 10:18:58
    0.00000341 293256.00000000 10:18:58
    0.00000341 37000000.00000000 10:18:34
    0.00000341 1010436.00000000 10:18:34
    0.00000341 92972326.00000000 10:18:34
    0.00000341 65901555.00000000 10:18:34
    0.00000341 145967764.00000000 10:18:34
    0.00000341 44413567.00000000 10:18:34
    0.00000341 16907781.00000000 10:18:06
    0.00000341 17677121.00000000 10:17:26
    0.00000341 25300170.00000000 10:17:06
    0.00000341 25816672.00000000 10:16:26
    0.00000341 19120109.00000000 10:16:16
    0.00000341 18727487.00000000 10:15:51
    0.00000341 2414344.00000000 10:15:42
    0.00000341 14655001.00000000 10:15:26
    0.00000341 16806702.00000000 10:15:17
    0.00000340 117808915.00000000 10:15:11
    0.00000341 26222690.00000000 10:15:01
    0.00000341 17885485.00000000 10:14:52
    0.00000341 23223188.00000000 10:14:26
    0.00000341 19906573.00000000 10:14:17
    0.00000341 22165417.00000000 10:13:57
    0.00000341 29617844.00000000 10:13:56
    0.00000340 2846686.00000000 10:13:50
    0.00000341 20405179.00000000 10:13:26
    0.00000340 129803329.00000000 10:13:18
    0.00000341 27610072.00000000 10:13:17
    0.00000340 1010436.00000000 10:12:59
    0.00000340 16531079.00000000 10:12:57
    0.00000340 289105361.00000000 10:12:38
    0.00000340 20010578.00000000 10:12:35
    0.00000340 196604502.00000000 10:12:35
    0.00000340 708134886.00000000 10:12:26
    0.00000340 26211555.00000000 10:12:26
    0.00000340 105243000.00000000 10:12:26
    0.00000341 22489451.00000000 10:12:17
    0.00000340 1847530.00000000 10:12:08
    0.00000341 18505465.00000000 10:11:42
    0.00000340 1220061.00000000 10:11:23
    0.00000340 13326724.00000000 10:11:17
    0.00000340 1010436.00000000 10:11:05
    0.00000340 226175800.00000000 10:11:05
    0.00000340 2614219.00000000 10:10:56
    0.00000340 20754636.00000000 10:10:17
    0.00000340 5455800.00000000 10:10:17
    0.00000340 26213793.00000000 10:10:14
    0.00000340 48165385.00000000 10:09:51
    0.00000340 459948400.00000000 10:09:51
    0.00000340 1010436.00000000 10:09:49
    0.00000340 673624.00000000 10:09:49
    0.00000340 178000000.00000000 10:09:49
    0.00000340 112325257.00000000 10:09:48
    0.00000340 674743.00000000 10:09:48
    0.00000340 23958476.00000000 10:09:48
    0.00000340 14718231.00000000 10:08:50
    0.00000341 129926760.00000000 10:08:38
    0.00000341 1766471.00000000 10:07:34
    0.00000340 1503202.00000000 10:07:26
    Desconectar
    AAA
    Ayuda
    🙂 🤣 😎 🤗 😛 😉 😜 🤑 🤔 😑 😴 😕 🙃 😲 😇 🙁 😢 😬 😟 😠 🕺 🏃 💪 ✌ 👌 👍 👎 👏 👋 🤝 🍺 🍻 🐋 🐟 🦈 🗽 🚄 ✈ 🛑 🚀 🏦 🌚 ⭐ 🌞 ⚡ 🏆 💰 💲 🔨 ❓ ❗ 💯 🔶 🏁
    ☺
    Iniciar sesión o Registrar y chatea
    24 Horas
    Variación
    -2.58%
    Volumen
    405,851,437,963
    Máx.
    0.00000355
    Mín.
    0.00000339
    7 Días
    Variación
    -10.99%
    Volumen
    3,292,753,302,850
    Máx.
    0.00000401
    Mín.
    0.00000337
    30 Días
    Variación
    +17.24%
    Volumen
    18,355,356,005,237
    Máx.
    0.00000455
    Mín.
    0.00000252
    Pepe price rallies 25% as whale demand and futures interest surge
    Key takeaways Pepe has gained 25% this week, including a combined 22% advance over the previous two days. Seven whale transactions worth more than $1 million each occurred Thursday, the highest...
    coinjournal.net
    Aug 21, 2026 08:41
    PEPE Supply on Exchanges Just Took a Massive Hit – What’s Next?
    A drop in PEPE exchange balances has added to bullish expectations despite muted trader interest.
    cryptopotato.com
    Aug 6, 2026 20:02
    PEPE Exchange Outflows Hit Nearly 2-Year High as Whales Accumulate
    Pepe (PEPE) recorded its largest single-day exchange outflow since November 2024, with 4.54 trillion tokens leaving trading platforms, signaling that holders are moving supply away from immediate...
    beincrypto.com
    Aug 6, 2026 04:57
    Meme Coin Based on White House Shooter Conspiracy Rallies 320%
    $HENRY surged 300% after a 2023 Pepe tweet appeared to name the White House shooter, fueling a viral time-travel meme. The post Meme Coin Based on White House Shooter Conspiracy Rallies 320%...
    beincrypto.com
    Apr 27, 2026 16:11
    PEPE surges 4% as market sentiment improves, eyes Key resistance breakout
    Key takeaways Pepe extends gains on Wednesday, stretching its rally from the 50-day EMA. Derivatives data show heightened retail activity as risk-on sentiment returns to the market. Pepe (PEPE) is...
    coinjournal.net
    Apr 22, 2026 11:44
    Why The PEPE Price Could Stage A 55X Rally To Reach New $0.0001 ATH
    The PEPE price has now started to edge back into bullish conversations after the recent inflows into the crypto market. The last time PEPE’s weekly chart printed the kind of structure now...
    newsbtc.com
    Apr 21, 2026 15:30
    Pepe (PEPE) surges 9%, drawing interest from whales
    Key takeaways PEPE is up 9% in the last 24 hours, making it one of the best performers among the top 50 cryptocurrencies by market cap. The rally comes amid renewed interest from whales and retail...
    coinjournal.net
    Apr 16, 2026 07:40
    Murad Says SPX6900 (SPX) Is Primed for a Rally — Is He Right This Time?
    Crypto influencer Murad Mahmudov claims SPX6900 (SPX) is stabilizing at the same market cap level where Dogecoin (DOGE) and Pepe (PEPE) consolidated before their explosive rallies. The...
    beincrypto.com
    Apr 5, 2026 21:36
    The Shiba Inu Of This Cycle: Analyst Shares Why It Is Better To Buy PEPE Now
    In the bull market cycle of 2021-2022, the Shiba Inu meme coin made waves in a way that changed the face of meme coins forever. This came after Dogecoin’s initial 36,000% rally, and Shiba Inu...
    newsbtc.com
    Apr 4, 2026 07:30
    PEPE Explodes by 18% Amid Altcoin Rally, BTC Tapped $74K: Market Watch
    The frog-themed meme coin is today's biggest gainer, followed by TAO, DOT, and BONK.
    cryptopotato.com
    Mar 16, 2026 10:56
    Should PEPE traders brace for volatility as short squeeze potential builds?
    The memecoin market has seen its collective market capitalization drop by 48% over the past year, and 6.9% over the past month, according to CoinMarketCap. According to Glassnode, the memecoin...
    ambcrypto.com
    Mar 7, 2026 18:00
    Simplemente teclea el comando en el chat. Sustituir nick1 por el apodo real.
    • /ignore nick1 Ignorar un usuario del chat
    • /unignore nick1 Dejar de ignorar un usuario del chat
    • /ignorelist Mostrar usuarios del chat que has ignorado